Overview Statistics Trail Chart Weather Telemetry Raw packets
 

This is the latest recevied weather packets stored in our database for station/object N8TWM-13. If no packets are shown the sender has not sent any weather packets the latest 10 day(s).

<< 22 23 24 25 26 27 28 >>
Time Temp. Humidity Pressure Rain* Wind** Luminosity Snow
1788459235 33.33° C 63% 1016.2 hPa 0 mm - 609 W/m² -
1788458935 33.33° C 61% 1016.3 hPa 0 mm - 623 W/m² -
1788458629 33.33° C 61% 1016.5 hPa 0 mm - 628 W/m² -
1788458329 33.33° C 61% 1016.2 hPa 0 mm - 630 W/m² -
1788458023 33.89° C 62% 1016.4 hPa 0 mm - 627 W/m² -
1788457717 33.33° C 61% 1016.5 hPa 0 mm - 181 W/m² -
1788457413 33.33° C 63% 1016.5 hPa 0 mm - 119 W/m² -
1788457107 32.78° C 64% 1016.9 hPa 0 mm - 121 W/m² -
1788456802 32.78° C 61% 1017.4 hPa 0 mm - 124 W/m² -
1788456498 32.78° C 64% 1017.6 hPa 0 mm - 567 W/m² -
1788456193 32.78° C 65% 1017.5 hPa 0 mm - 177 W/m² -
1788455888 32.22° C 64% 1017.5 hPa 0 mm - 126 W/m² -
1788455584 32.78° C 63% 1017.5 hPa 0 mm - 129 W/m² -
1788455283 32.78° C 64% 1017.1 hPa 0 mm - 131 W/m² -
1788454978 32.78° C 64% 1016.8 hPa 0 mm - 128 W/m² -
1788454676 32.78° C 65% 1017 hPa 0 mm - 128 W/m² -
1788454371 32.78° C 65% 1017.3 hPa 0 mm - 132 W/m² -
1788454065 32.78° C 66% 1017.1 hPa 0 mm - 138 W/m² -
1788453762 32.22° C 66% 1017.4 hPa 0 mm - 500 W/m² -
1788453460 32.22° C 66% 1017.2 hPa 0 mm - 227 W/m² -
1788453157 32.22° C 65% 1017.3 hPa 0 mm - 534 W/m² -
1788452853 32.78° C 66% 1017.3 hPa 0 mm - 140 W/m² -
1788452549 32.22° C 67% 1017.1 hPa 0 mm - 211 W/m² -
1788452244 32.22° C 68% 1017.3 hPa 0 mm - 632 W/m² -
1788451940 32.22° C 67% 1017.2 hPa 0 mm - 619 W/m² -

* Rain latest hour (hover to see other rain measurements)
** Current wind speed in m/s (hover to see current wind gust speed)